Minot, ND

6:07 AM CDT on March 28, 2017 (GMT -0500)
Minot International

Weather History for KMOT - June, 2013

Change the Weather History Date:

Sunday, June 30, 2013

  Actual Average Record
Temperature  
Mean Temperature 70 °F 68 °F  
Max Temperature 80 °F 79 °F 103 °F (1921)
Min Temperature 60 °F 56 °F 39 °F (1918)
Cooling Degree Days 5 4  
Month to date cooling degree days 64 73  
Year to date cooling degree days 74 89  
Since 1 June cooling degree days 64 73  
Growing Degree Days 20 (Base 50)    
Moisture  
Dew Point 53 °F    
Average Humidity 63    
Maximum Humidity 90    
Minimum Humidity 35    
Precipitation  
Precipitation T in 0.11 in 1.29 in (1991)
Month to date precipitation 4.60 3.58  
Year to date precipitation 12.97 8.97  
Sea Level Pressure  
Sea Level Pressure 30.18 in    
Wind  
Wind Speed 4 mph (ENE)    
Max Wind Speed 12 mph    
Max Gust Speed 21 mph    
Visibility 10 miles    
Events Rain    
T = Trace of Precipitation, MM = Missing Value Source: NWS Daily Summary

Daily Weather History Graph

Daily Weather History Graph

Search for Another Location

Airport or City:

Trip Planner

Search our weather history database for the weather conditions in past years. The results will help you decide how hot, cold, wet, or windy it might be!

Date:

Astronomy

Jun. 30, 2013 Rise Set
Actual Time 5:48 AM CDT 9:49 PM CDT
Civil Twilight 5:06 AM CDT 10:30 PM CDT
Nautical Twilight 4:08 AM CDT 11:28 PM CDT
Astronomical Twilight 2:29 AM CDT 1:05 AM CDT
Moon 1:11 AM CDT (6/30) 2:45 PM CDT (6/30)
Length of Visible Light 17h 24m
Length of Day
16h 01m
Last Quarter, 45% of the Moon is Illuminated
Jun 30
Last Quarter
Jul 8
New
Jul 15
First Quarter
Jul 22
Full
Jul 29
Last Quarter

Hourly Weather History & Observations

Time (CDT) Temp. Dew Point Humidity Pressure Visibility Wind Dir Wind Speed Gust Speed Precip Events Conditions
12:54 AM 61.0 °F 57.0 °F 87% 30.13 in 10.0 mi Calm Calm - N/A   Partly Cloudy
1:54 AM 64.0 °F 57.9 °F 80% 30.14 in 10.0 mi Calm Calm - N/A   Overcast
2:54 AM 64.0 °F 59.0 °F 84% 30.14 in 10.0 mi Calm Calm - N/A   Overcast
3:54 AM 63.0 °F 53.1 °F 70% 30.17 in 10.0 mi ENE 6.9 mph - 0.00 in Rain Light Rain
4:54 AM 63.0 °F 54.0 °F 72% 30.14 in 10.0 mi NE 4.6 mph - 0.00 in   Overcast
5:54 AM 62.1 °F 55.9 °F 80% 30.16 in 10.0 mi NW 3.5 mph - N/A   Overcast
6:54 AM 61.0 °F 57.9 °F 90% 30.18 in 10.0 mi Calm Calm - N/A   Clear
7:54 AM 66.0 °F 59.0 °F 78% 30.19 in 10.0 mi North 4.6 mph - N/A   Clear
8:54 AM 66.9 °F 57.0 °F 70% 30.19 in 10.0 mi East 5.8 mph - N/A   Clear
9:54 AM 70.0 °F 55.0 °F 59% 30.20 in 10.0 mi ENE 3.5 mph - N/A   Clear
10:54 AM 73.0 °F 53.1 °F 49% 30.20 in 10.0 mi East 8.1 mph - N/A   Clear
11:54 AM 75.9 °F 52.0 °F 43% 30.20 in 10.0 mi ENE 8.1 mph - N/A   Clear
12:54 PM 77.0 °F 51.1 °F 40% 30.20 in 10.0 mi ENE 8.1 mph - N/A   Clear
1:54 PM 78.1 °F 50.0 °F 37% 30.20 in 10.0 mi Variable 3.5 mph - N/A   Clear
2:54 PM 79.0 °F 48.0 °F 34% 30.20 in 10.0 mi ESE 5.8 mph - N/A   Clear
3:54 PM 75.9 °F 50.0 °F 40% 30.19 in 10.0 mi North 3.5 mph - N/A   Clear
4:54 PM 79.0 °F 48.9 °F 35% 30.18 in 10.0 mi ENE 5.8 mph - N/A   Partly Cloudy
5:54 PM 79.0 °F 51.1 °F 38% 30.18 in 10.0 mi NE 6.9 mph - N/A   Partly Cloudy
6:54 PM 77.0 °F 50.0 °F 39% 30.18 in 10.0 mi ENE 6.9 mph - N/A   Clear
7:54 PM 75.0 °F 53.1 °F 46% 30.18 in 10.0 mi East 4.6 mph - N/A   Clear
8:54 PM 73.0 °F 50.0 °F 44% 30.18 in 10.0 mi ENE 3.5 mph - N/A   Clear
9:54 PM 66.9 °F 51.1 °F 57% 30.19 in 10.0 mi East 4.6 mph - N/A   Clear
10:54 PM 63.0 °F 50.0 °F 63% 30.21 in 10.0 mi Calm Calm - N/A   Clear
11:54 PM 66.9 °F 48.0 °F 51% 30.21 in 10.0 mi Calm Calm - N/A   Clear